POE9002 TBPB-CYYZ

Flight info

Callsign POE9002
Flight time N/A
Altitude 40000
Route GEECE L466 MEEGL Y356 DONQU DCT LNHOM/M078F400 L452 OXANA/N0446F400 AR8 ECG DCT AML DCT PSB DCT WOZEE LINNG3
Aircraft E195/M-SDE3GILORVW/S

Departure

Time 2026-05-07 19:26
Airport Grantley Adams International Airport (TBPB)

Arrival

Time N/A
Airport Toronto Pearson International Airport (CYYZ)
Time Latitude Longitude Altitude Speed Heading
2026-05-07 18:57 13.07676 -59.49260 178 ft 0 kts 346°
2026-05-07 19:15 13.07669 -59.49258 177 ft 1 kts 347°
2026-05-07 19:15 13.07651 -59.49253 176 ft 3 kts 347°
2026-05-07 19:15 13.07638 -59.49251 176 ft 0 kts 348°
2026-05-07 19:17 13.07636 -59.49250 176 ft 1 kts 343°
2026-05-07 19:18 13.07626 -59.49241 175 ft 2 kts 287°
2026-05-07 19:18 13.07627 -59.49226 174 ft 2 kts 252°
2026-05-07 19:18 13.07631 -59.49212 173 ft 2 kts 256°
2026-05-07 19:18 13.07632 -59.49206 173 ft 0 kts 256°
2026-05-07 19:20 13.07632 -59.49207 175 ft 0 kts 256°
2026-05-07 19:20 13.07629 -59.49219 175 ft 3 kts 256°
2026-05-07 19:21 13.07628 -59.49225 175 ft 4 kts 256°
2026-05-07 19:21 13.07624 -59.49242 175 ft 5 kts 256°
2026-05-07 19:21 13.07612 -59.49292 176 ft 8 kts 256°
2026-05-07 19:21 13.07594 -59.49365 176 ft 12 kts 256°
2026-05-07 19:22 13.07570 -59.49462 176 ft 15 kts 256°
2026-05-07 19:22 13.07541 -59.49580 177 ft 18 kts 256°
2026-05-07 19:22 13.07510 -59.49717 177 ft 20 kts 255°
2026-05-07 19:22 13.07474 -59.49857 178 ft 20 kts 256°
2026-05-07 19:23 13.07437 -59.50005 178 ft 21 kts 256°
2026-05-07 19:23 13.07401 -59.50154 180 ft 22 kts 256°
2026-05-07 19:23 13.07362 -59.50309 180 ft 22 kts 255°
2026-05-07 19:23 13.07324 -59.50466 181 ft 23 kts 256°
2026-05-07 19:24 13.07284 -59.50629 182 ft 23 kts 256°
2026-05-07 19:24 13.07226 -59.50729 183 ft 13 kts 188°
2026-05-07 19:24 13.07134 -59.50709 183 ft 14 kts 160°
2026-05-07 19:24 13.07114 -59.50634 181 ft 10 kts 77°
2026-05-07 19:25 13.07115 -59.50630 181 ft 0 kts 77°
2026-05-07 19:25 13.07116 -59.50626 181 ft 4 kts 77°
2026-05-07 19:26 13.07187 -59.50348 177 ft 76 kts 75°
2026-05-07 19:26 13.07367 -59.49609 170 ft 136 kts 76°
2026-05-07 19:26 13.07640 -59.48564 430 ft 158 kts 74°
2026-05-07 19:26 13.07990 -59.47431 880 ft 173 kts 73°
2026-05-07 19:27 13.08360 -59.46286 1614 ft 172 kts 61°
2026-05-07 19:27 13.09177 -59.45269 1912 ft 200 kts 40°
2026-05-07 19:27 13.10496 -59.44506 2116 ft 237 kts 21°
2026-05-07 19:27 13.12196 -59.44173 2572 ft 261 kts
2026-05-07 19:28 13.14036 -59.44386 3382 ft 270 kts 347°
2026-05-07 19:28 13.15735 -59.45119 4310 ft 271 kts 330°
2026-05-07 19:28 13.17202 -59.46331 5247 ft 272 kts 314°
2026-05-07 19:28 13.18280 -59.47895 6106 ft 274 kts 298°
2026-05-07 19:29 13.18921 -59.49752 6889 ft 279 kts 283°
2026-05-07 19:29 13.19062 -59.51725 7569 ft 285 kts 269°
2026-05-07 19:29 13.19088 -59.53760 8234 ft 289 kts 280°
2026-05-07 19:29 13.19568 -59.55755 8911 ft 291 kts 291°
2026-05-07 19:30 13.20318 -59.57693 9599 ft 294 kts 296°
2026-05-07 19:30 13.21172 -59.59596 10284 ft 296 kts 297°
2026-05-07 19:30 13.22076 -59.61493 10880 ft 301 kts 299°
2026-05-07 19:30 13.23023 -59.63426 11409 ft 309 kts 300°
2026-05-07 19:31 13.24010 -59.65415 11868 ft 318 kts 300°
2026-05-07 19:31 13.25042 -59.67486 12333 ft 327 kts 300°
2026-05-07 19:31 13.26079 -59.69562 12912 ft 331 kts 300°
2026-05-07 19:31 13.27122 -59.71649 13524 ft 333 kts 300°
2026-05-07 19:32 13.28184 -59.73771 14164 ft 334 kts 299°
2026-05-07 19:32 13.29244 -59.75893 14809 ft 335 kts 298°
2026-05-07 19:32 13.30308 -59.78021 15424 ft 336 kts 298°
2026-05-07 19:32 13.31368 -59.80142 16002 ft 337 kts 297°
2026-05-07 19:33 13.32445 -59.82297 16555 ft 340 kts 297°
2026-05-07 19:33 13.33528 -59.84466 17105 ft 342 kts 297°
2026-05-07 19:33 13.34599 -59.86613 17656 ft 343 kts 297°
2026-05-07 19:33 13.35687 -59.88793 18169 ft 345 kts 297°
2026-05-07 19:34 13.36786 -59.90993 18661 ft 348 kts 296°
2026-05-07 19:34 13.37896 -59.93219 19114 ft 351 kts 296°
2026-05-07 19:34 13.39013 -59.95459 19567 ft 354 kts 296°
2026-05-07 19:34 13.40136 -59.97710 20039 ft 356 kts 296°
2026-05-07 19:35 13.41257 -59.99959 20484 ft 359 kts 296°
2026-05-07 19:35 13.42405 -60.02262 20941 ft 361 kts 296°
2026-05-07 19:35 13.43550 -60.04562 21377 ft 363 kts 296°
2026-05-07 19:35 13.44701 -60.06873 21795 ft 366 kts 295°
2026-05-07 19:36 13.45855 -60.09190 22218 ft 368 kts 295°
2026-05-07 19:36 13.47019 -60.11528 22642 ft 369 kts 295°
2026-05-07 19:36 13.48192 -60.13884 23056 ft 372 kts 295°
2026-05-07 19:36 13.49368 -60.16248 23479 ft 373 kts 295°
2026-05-07 19:37 13.50552 -60.18628 23876 ft 376 kts 295°
2026-05-07 19:37 13.51739 -60.21016 24262 ft 378 kts 295°
2026-05-07 19:37 13.52936 -60.23423 24650 ft 380 kts 295°
2026-05-07 19:37 13.54137 -60.25841 25040 ft 382 kts 294°
2026-05-07 19:38 13.55349 -60.28280 25417 ft 384 kts 294°
2026-05-07 19:38 13.56569 -60.30736 25788 ft 386 kts 294°
2026-05-07 19:38 13.57782 -60.33180 26148 ft 388 kts 294°
2026-05-07 19:38 13.59008 -60.35650 26499 ft 390 kts 294°
2026-05-07 19:39 13.60252 -60.38157 26862 ft 392 kts 294°
2026-05-07 19:39 13.61477 -60.40626 27191 ft 394 kts 294°
2026-05-07 19:39 13.62722 -60.43137 27540 ft 396 kts 293°
2026-05-07 19:39 13.63981 -60.45675 27861 ft 398 kts 293°
2026-05-07 19:40 13.65242 -60.48222 28171 ft 400 kts 293°
2026-05-07 19:40 13.66496 -60.50753 28498 ft 402 kts 293°
2026-05-07 19:40 13.67776 -60.53336 28816 ft 404 kts 293°
2026-05-07 19:40 13.69043 -60.55895 29143 ft 405 kts 293°
2026-05-07 19:41 13.70316 -60.58466 29479 ft 407 kts 293°
2026-05-07 19:41 13.70752 -60.59348 29597 ft 407 kts 293°
2026-05-07 19:41 13.74184 -60.66287 30439 ft 411 kts 292°
2026-05-07 19:42 13.75481 -60.68910 30765 ft 412 kts 292°
2026-05-07 19:42 13.76348 -60.70665 30964 ft 414 kts 293°